Location: Chimay
(50.0486°N, 4.3171°E)
Time: 17:46:26
(UTC+00:00)

Terra - Pass Details

Date: 08 August 2020
Orbit: 701 x 703 km, 98.2° (Epoch: 25 September)

Event Time Altitude Azimuth Distance (km) Brightness Sun altitude
Exits shadow 21:59:48 31° 200° (SSW) 1,235 2.7 -20.0°
Maximum altitude 22:01:49 52° 260° (W) 882 2.4 -20.1°
Drops below altitude 10° 22:06:30 10° 337° (NNW) 2,184 5.6 -20.4°
Sets 22:08:49 0° 342° (NNW) 3,107 6.7 -20.6°
